K3HM Weather Reports


time (UTC)temp
F
wind
direction
speed
knots
gust
knots
rain 1hr
in
rain 24hr
in
rain mn
in
humidity
%
barometer
mb
20260509162100 52 276 2.6 3.5 0.00 0.04 0.04 92 1011.4
20260509161556 51 195 3.5 3.5 0.00 0.04 0.04 92 1011.6
20260509161056 51 305 0.9 0.9 0.00 0.04 0.04 92 1011.5
20260509160553 51 247 3.5 5.2 0.00 0.04 0.04 91 1011.4
20260509160048 50 263 2.6 2.6 0.00 0.04 0.04 92 1011.5
20260509155544 50 201 4.3 5.2 0.00 0.04 0.04 93 1011.7
20260509155041 50 228 3.5 5.2 0.00 0.04 0.04 94 1011.6
20260509154537 50 220 3.5 6.1 0.00 0.04 0.04 94 1011.4
20260509154035 50 267 2.6 3.5 0.00 0.04 0.04 93 1011.6
20260509153531 50 240 4.3 5.2 0.00 0.04 0.04 92 1011.4
20260509153028 50 249 3.5 3.5 0.00 0.04 0.04 92 1011.4
20260509152524 51 237 2.6 3.5 0.00 0.04 0.04 93 1011.6
20260509152021 51 210 3.5 5.2 0.00 0.04 0.04 91 1011.3
20260509151518 50 270 3.5 3.5 0.00 0.04 0.04 91 1011.2
20260509151016 50 228 2.6 2.6 0.00 0.04 0.04 91 1011.3
20260509150513 50 216 4.3 5.2 0.00 0.04 0.04 92 1011.4
20260509150011 51 244 2.6 2.6 0.00 0.04 0.04 91 1011.3
20260509145506 50 198 2.6 2.6 0.00 0.04 0.04 92 1011.4
20260509145001 50 305 1.7 1.7 0.00 0.04 0.04 92 1011.3
20260509144459 50 257 3.5 3.5 0.00 0.04 0.04 92 1011.5
20260509143956 50 286 3.5 3.5 0.00 0.04 0.04 92 1011.3
20260509143453 50 167 2.6 2.6 0.00 0.04 0.04 92 1011.4
20260509142950 50 212 4.3 8.7 0.00 0.04 0.04 92 1011.3
20260509142446 50 240 2.6 3.5 0.00 0.04 0.04 92 1011.4
20260509141941 50 225 2.6 3.5 0.00 0.04 0.04 92 1011.4
20260509141438 50 201 3.5 5.2 0.00 0.04 0.04 94 1011.5
20260509140935 50 270 2.6 2.6 0.00 0.04 0.04 95 1011.5
20260509140431 49 239 4.3 6.1 0.00 0.04 0.04 95 1011.6
20260509135930 49 219 6.1 7.0 0.00 0.04 0.04 95 1011.6
20260509135427 49 241 2.6 5.2 0.00 0.04 0.04 95 1011.6
20260509134924 49 226 2.6 2.6 0.07 0.04 0.04 95 1011.5
20260509134421 49 209 2.6 2.6 0.07 0.04 0.04 95 1011.7
20260509133919 49 193 2.6 3.5 0.00 0.03 0.03 94 1011.8
20260509133415 49 241 1.7 1.7 0.00 0.03 0.03 94 1011.8
20260509132914 49 287 3.5 3.5 0.00 0.03 0.03 93 1011.8
20260509132412 50 230 1.7 2.6 0.00 0.03 0.03 93 1011.8
20260509131908 49 240 2.6 2.6 0.00 0.03 0.03 93 1011.7
20260509131405 49 279 2.6 2.6 0.00 0.03 0.03 93 1011.7
20260509130902 49 222 1.7 1.7 0.00 0.03 0.03 94 1011.6
20260509130357 49 232 2.6 3.5 0.00 0.03 0.03 93 1011.7
20260509125854 49 210 2.6 3.5 0.00 0.03 0.03 94 1011.5
20260509125351 49 243 3.5 6.1 0.00 0.03 0.03 94 1011.8
20260509124847 49 194 2.6 3.5 0.00 0.03 0.03 94 1011.8
20260509124344 49 264 2.6 3.5 0.00 0.03 0.03 95 1011.8
20260509123842 49 250 1.7 2.6 0.00 0.03 0.03 95 1011.8
20260509123339 49 294 1.7 1.7 0.00 0.03 0.03 95 1011.7
20260509122834 48 269 2.6 2.6 0.00 0.03 0.03 94 1012.0
20260509122332 48 253 2.6 2.6 0.00 0.03 0.03 94 1011.9
20260509121829 49 223 1.7 2.6 0.00 0.03 0.03 94 1011.8
20260509121326 49 241 2.6 2.6 0.00 0.03 0.03 94 1012.0
20260509120824 49 278 0.9 1.7 0.00 0.03 0.03 95 1012.0
20260509120321 48 275 2.6 2.6 0.00 0.03 0.03 94 1011.9
20260509115820 48 218 4.3 5.2 0.05 0.03 0.03 94 1011.7
20260509115316 48 197 2.6 2.6 0.05 0.03 0.03 95 1011.9
20260509114814 48 302 3.5 3.5 0.00 0.02 0.02 95 1011.9
20260509114313 47 198 2.6 2.6 0.00 0.02 0.02 95 1011.9
20260509113812 47 242 1.7 1.7 0.00 0.02 0.02 95 1011.8
20260509113308 47 255 1.7 2.6 0.00 0.02 0.02 95 1011.7
20260509112805 47 201 1.7 2.6 0.00 0.02 0.02 95 1011.9
20260509112306 47 297 1.7 2.6 0.00 0.02 0.02 95 1011.7
20260509111759 47 314 1.7 1.7 0.00 0.02 0.02 95 1011.9
20260509111255 47 215 2.6 2.6 0.00 0.02 0.02 95 1011.8
20260509110753 47 229 2.6 2.6 0.00 0.02 0.02 95 1011.9
20260509110249 47 318 1.7 1.7 0.00 0.02 0.02 95 1011.9
20260509105748 47 201 2.6 3.5 0.00 0.02 0.02 95 1011.9
20260509105245 47 223 1.7 2.6 0.07 0.02 0.02 94 1012.0
20260509104741 47 251 1.7 1.7 0.07 0.02 0.02 94 1012.0
20260509104239 47 279 1.7 2.6 0.00 0.01 0.01 93 1011.8
20260509103737 47 22 0.9 0.9 0.00 0.01 0.01 93 1011.9
20260509103234 46 358 1.7 1.7 0.00 0.01 0.01 94 1011.8
20260509102732 47 232 1.7 1.7 0.00 0.01 0.01 93 1012.0
20260509102228 47 287 0.9 1.7 0.00 0.01 0.01 93 1012.0
20260509101725 47 210 0.9 1.7 0.00 0.01 0.01 92 1012.0
20260509101221 47 52 0.9 0.9 0.00 0.01 0.01 92 1012.0
20260509100719 47 113 0.9 0.9 0.00 0.01 0.01 90 1012.2
20260509100216 48 338 1.7 2.6 0.05 0.01 0.01 89 1012.3
20260509095713 48 301 4.3 6.1 0.05 0.01 0.01 88 1012.3
20260509095210 48 261 2.6 3.5 0.00 0.00 0.00 87 1012.3
20260509094707 48 186 4.3 5.2 0.00 0.00 0.00 86 1012.2
20260509094203 45 331 2.6 3.5 0.00 0.00 0.00 91 1011.9
20260509093702 46 7 0.0 0.0 0.00 0.00 0.00 93 1011.9
20260509093159 46 19 0.0 0.0 0.00 0.00 0.00 92 1012.0
20260509092656 46 27 0.0 0.0 0.00 0.00 0.00 92 1011.8
20260509092155 46 13 0.0 0.0 0.00 0.00 0.00 91 1011.7
20260509091653 46 357 0.0 0.0 0.00 0.00 0.00 90 1012.0
20260509091148 47 357 0.0 0.0 0.00 0.00 0.00 88 1011.7
20260509090646 47 329 0.0 0.9 0.00 0.00 0.00 86 1011.5
20260509090143 48 2 0.0 0.0 0.00 0.00 0.00 84 1011.6
20260509085641 48 353 0.0 0.0 0.00 0.00 0.00 83 1011.6
20260509085136 49 2 0.0 0.0 0.00 0.00 0.00 78 1011.5
20260509084634 49 2 0.0 0.9 0.00 0.00 0.00 77 1011.5
20260509084131 49 1 0.0 0.0 0.00 0.00 0.00 74 1011.4
20260509083628 49 28 0.0 0.0 0.00 0.00 0.00 74 1011.3
20260509083125 49 21 0.0 0.0 0.00 0.00 0.00 77 1011.4
20260509082622 49 5 0.0 0.0 0.00 0.00 0.00 77 1011.4
20260509082119 49 16 0.0 0.0 0.00 0.00 0.00 79 1011.3
20260509081616 49 16 0.0 0.0 0.00 0.00 0.00 76 1011.4
20260509081113 49 349 0.9 0.9 0.00 0.00 0.00 77 1011.3
20260509080611 49 8 0.0 0.0 0.00 0.00 0.00 75 1011.1
20260509080109 49 350 0.9 0.9 0.00 0.00 0.00 77 1011.2
20260509075606 49 325 0.9 0.9 0.00 0.00 0.00 76 1011.3
20260509075104 48 6 0.0 0.0 0.00 0.00 0.00 78 1011.1
20260509074601 48 10 0.9 1.7 0.00 0.00 0.00 79 1011.1
20260509074057 48 359 0.0 0.9 0.00 0.00 0.00 79 1011.3
20260509073554 47 281 1.7 1.7 0.00 0.00 0.00 80 1011.4
20260509073050 47 0 0.9 0.9 0.00 0.00 0.00 83 1011.1
20260509072547 48 11 0.0 0.0 0.00 0.00 0.00 79 1011.3
20260509072044 47 24 0.0 0.9 0.00 0.00 0.00 80 1011.3
20260509071541 47 8 0.0 0.9 0.00 0.00 0.00 81 1011.4
20260509071038 47 8 0.0 0.9 0.00 0.00 0.00 81 1011.2
20260509070535 47 9 0.0 0.0 0.00 0.00 0.00 81 1011.0
20260509070031 47 18 0.0 0.0 0.00 0.00 0.00 80 1010.9
20260509065527 47 23 0.9 0.9 0.00 0.00 0.00 81 1011.2
20260509065023 47 11 0.9 0.9 0.00 0.00 0.00 81 1011.1
20260509064521 46 11 0.0 0.0 0.00 0.00 0.00 84 1011.4
20260509064019 46 11 0.0 0.0 0.00 0.00 0.00 84 1011.6
20260509063514 46 11 0.0 0.0 0.00 0.00 0.00 84 1011.6
20260509063011 46 11 0.0 0.0 0.00 0.00 0.00 84 1011.9
20260509062509 46 11 0.0 0.0 0.00 0.00 0.00 85 1011.8
20260509062006 46 11 0.0 0.0 0.00 0.00 0.00 86 1011.9
20260509061503 46 11 0.0 0.0 0.00 0.00 0.00 86 1012.0
20260509061001 46 11 0.0 0.0 0.00 0.00 0.00 86 1012.2
20260509060458 46 11 0.0 0.0 0.00 0.00 0.00 87 1012.3
20260509055953 46 11 0.0 0.0 0.00 0.00 0.00 87 1012.3
20260509055448 46 11 0.0 0.0 0.00 0.00 0.00 88 1012.2
20260509054945 46 11 0.0 0.0 0.00 0.00 0.00 89 1012.4
20260509054442 47 11 0.0 0.0 0.00 0.00 0.00 89 1012.5
20260509053940 47 10 0.0 0.0 0.00 0.00 0.00 88 1012.6
20260509053438 47 25 0.0 0.0 0.00 0.00 0.00 87 1012.7
20260509052935 47 27 0.0 0.0 0.00 0.00 0.00 87 1012.8
20260509052432 47 27 0.0 0.0 0.00 0.00 0.00 87 1012.8
20260509051930 47 27 0.0 0.0 0.00 0.00 0.00 88 1012.7
20260509051428 47 358 0.0 0.0 0.00 0.00 0.00 86 1012.6
20260509050924 47 356 0.0 0.0 0.00 0.00 0.00 85 1012.8
20260509050421 47 358 0.0 0.0 0.00 0.00 0.00 87 1012.8
20260509045918 47 358 0.0 0.0 0.00 0.00 0.00 87 1012.6
20260509045415 47 358 0.0 0.0 0.00 0.00 0.00 87 1012.8
20260509044912 47 358 0.0 0.9 0.00 0.00 0.00 87 1012.6
20260509044410 47 358 0.0 0.0 0.00 0.00 0.00 87 1012.8
20260509043906 47 358 0.0 0.0 0.00 0.00 0.00 87 1012.6
20260509043402 47 358 0.0 0.0 0.00 0.00 0.00 86 1012.9
20260509042858 47 358 0.9 0.9 0.00 0.00 0.00 86 1013.0
20260509042355 47 358 0.9 0.9 0.00 0.00 0.00 86 1012.8
20260509041851 47 358 0.0 0.0 0.00 0.00 0.00 86 1012.8
20260509041348 47 358 0.0 0.0 0.00 0.00 0.00 88 1012.8
20260509040847 47 358 0.0 0.0 0.00 0.00 0.00 88 1012.9
20260509040344 47 358 0.0 0.0 0.00 0.00 0.00 89 1013.1
20260509035841 47 358 0.0 0.0 0.00 0.00 0.00 89 1012.9
20260509035338 47 358 0.0 0.0 0.00 0.00 0.00 87 1012.8
20260509034834 47 358 0.0 0.0 0.00 0.00 0.00 87 1012.9
20260509034332 47 358 0.0 0.0 0.00 0.00 0.00 87 1012.9
20260509033828 47 358 0.0 0.0 0.00 0.00 0.00 86 1012.9
20260509033326 47 358 0.0 0.0 0.00 0.00 0.00 86 1012.8
20260509032822 47 358 0.0 0.0 0.00 0.00 0.00 87 1012.9
20260509032320 47 358 0.0 0.0 0.00 0.00 0.00 87 1012.9
20260509031818 47 358 0.0 0.0 0.00 0.00 0.00 85 1012.8
20260509031315 48 358 0.0 0.0 0.00 0.00 0.00 85 1013.1
20260509030812 48 358 0.0 0.0 0.00 0.00 0.00 83 1012.9
20260509030310 48 358 0.0 0.0 0.00 0.00 0.00 82 1013.0
20260509025806 48 358 0.0 0.0 0.00 0.00 0.00 82 1013.0
20260509025306 48 358 0.0 0.0 0.00 0.00 0.00 82 1012.9
20260509024758 48 358 0.0 0.0 0.00 0.00 0.00 80 1013.1
20260509024254 48 358 0.0 0.0 0.00 0.00 0.00 80 1013.0
20260509023751 48 358 0.0 0.0 0.00 0.00 0.00 78 1013.2
20260509023248 48 358 0.0 0.0 0.00 0.00 0.00 78 1013.1
20260509022744 48 358 0.0 0.0 0.00 0.00 0.00 77 1013.1
20260509022242 48 358 0.0 0.0 0.00 0.00 0.00 76 1013.0
20260509021739 48 358 0.0 0.0 0.00 0.00 0.00 76 1012.9
20260509021236 49 357 0.0 0.0 0.00 0.00 0.00 75 1013.0
20260509020734 50 357 0.0 0.0 0.00 0.00 0.00 72 1013.1
20260509020231 50 358 0.9 0.9 0.00 0.00 0.00 72 1013.1
20260509015729 50 357 0.9 0.9 0.00 0.00 0.00 74 1012.9
20260509015227 48 1 0.9 0.9 0.00 0.00 0.00 80 1013.0
20260509014723 48 10 0.0 0.0 0.00 0.00 0.00 83 1013.1
20260509014220 48 10 0.0 0.0 0.00 0.00 0.00 82 1013.0
20260509013717 48 9 0.0 0.0 0.00 0.00 0.00 82 1013.0
20260509013212 48 10 0.0 0.0 0.00 0.00 0.00 83 1013.0
20260509012709 48 10 0.0 0.0 0.00 0.00 0.00 84 1012.9
20260509012206 48 10 0.0 0.0 0.00 0.00 0.00 84 1013.0
20260509011704 48 10 0.0 0.0 0.00 0.00 0.00 84 1013.0
20260509011201 48 18 0.0 0.0 0.00 0.00 0.00 85 1012.8
20260509010659 48 17 0.0 0.0 0.00 0.00 0.00 81 1012.9
20260509010155 48 18 0.0 0.9 0.00 0.00 0.00 82 1012.8
20260509005653 48 27 0.0 0.0 0.00 0.00 0.00 80 1013.0
20260509005149 48 27 0.9 0.9 0.00 0.00 0.00 78 1012.7
20260509004644 48 11 0.0 0.0 0.00 0.00 0.00 79 1013.0
20260509004142 48 13 0.9 0.9 0.00 0.00 0.00 79 1012.8
20260509003640 48 359 0.9 0.9 0.00 0.00 0.00 80 1012.7
20260509003137 48 359 0.0 0.0 0.00 0.00 0.00 80 1012.6
20260509002635 48 359 0.0 0.0 0.00 0.00 0.00 79 1012.8
20260509002132 49 358 0.0 0.0 0.00 0.00 0.00 78 1012.5
20260509001630 49 358 0.0 0.0 0.00 0.00 0.00 78 1012.5
20260509001125 50 358 0.9 0.9 0.00 0.00 0.00 79 1012.7
20260509000624 50 358 0.0 0.0 0.00 0.00 0.00 78 1012.7
20260509000120 51 358 0.0 0.0 0.00 0.00 0.00 77 1012.7
20260508235617 51 0 0.0 0.0 0.00 0.00 0.00 76 1012.7
20260508235113 51 359 0.0 0.0 0.00 0.00 0.00 75 1012.6
20260508234611 51 359 0.0 0.0 0.00 0.00 0.00 75 1012.6
20260508234107 52 358 0.0 0.9 0.00 0.00 0.00 75 1012.6
20260508233607 52 358 0.0 0.0 0.00 0.00 0.00 72 1012.5
20260508233104 52 358 0.0 0.0 0.00 0.00 0.00 70 1012.6
20260508232601 53 358 0.0 0.0 0.00 0.00 0.00 71 1012.4
20260508232057 53 358 0.0 0.0 0.00 0.00 0.00 67 1012.4
20260508231555 53 358 0.0 0.0 0.00 0.00 0.00 69 1012.7
20260508231052 53 344 0.0 0.9 0.00 0.00 0.00 67 1012.7
20260508230549 53 353 0.0 0.0 0.00 0.00 0.00 66 1012.5
20260508230045 53 338 0.9 0.9 0.00 0.00 0.00 67 1012.7
20260508225543 53 338 0.0 0.0 0.00 0.00 0.00 65 1012.6
20260508225039 53 286 0.9 0.9 0.00 0.00 0.00 64 1012.3
20260508224537 53 198 1.7 1.7 0.00 0.00 0.00 64 1012.6
20260508224034 53 315 0.9 0.9 0.00 0.00 0.00 63 1012.4
20260508223532 54 234 1.7 2.6 0.00 0.00 0.00 63 1012.6
20260508223029 55 258 1.7 2.6 0.00 0.00 0.00 61 1012.4
20260508222527 54 264 1.7 2.6 0.00 0.00 0.00 62 1012.4
20260508222023 55 273 1.7 1.7 0.00 0.00 0.00 62 1012.5
20260508221519 54 256 1.7 1.7 0.00 0.00 0.00 64 1012.6
20260508221015 53 238 1.7 1.7 0.00 0.00 0.00 65 1012.6
20260508220512 53 213 1.7 2.6 0.00 0.00 0.00 65 1012.8
20260508220008 53 347 0.0 0.9 0.00 0.00 0.00 65 1012.8
20260508215505 53 193 0.9 1.7 0.00 0.00 0.00 67 1012.9
20260508215001 53 205 1.7 2.6 0.00 0.00 0.00 66 1013.0
20260508214500 52 18 0.0 0.0 0.00 0.00 0.00 67 1013.0
20260508213955 53 283 0.9 0.9 0.00 0.00 0.00 67 1013.0
20260508213453 52 25 0.9 1.7 0.00 0.00 0.00 67 1013.1
20260508212948 52 359 0.9 1.7 0.00 0.00 0.00 68 1013.0
20260508212445 52 311 1.7 1.7 0.00 0.00 0.00 66 1013.1
20260508211941 52 347 1.7 2.6 0.00 0.00 0.00 67 1013.1
20260508211437 52 318 1.7 1.7 0.00 0.00 0.00 68 1013.2
20260508210934 52 9 0.9 0.9 0.00 0.00 0.00 69 1013.3
20260508210431 52 351 0.9 1.7 0.00 0.00 0.00 67 1013.2
20260508205927 52 298 4.3 5.2 0.00 0.00 0.00 66 1013.2
20260508205425 52 326 3.5 6.1 0.00 0.00 0.00 65 1013.4
20260508204920 52 273 6.1 8.7 0.00 0.00 0.00 67 1013.2
20260508204418 52 3 0.0 0.0 0.00 0.00 0.00 68 1013.3
20260508203913 52 308 0.9 0.9 0.00 0.00 0.00 68 1013.4
20260508203410 52 236 1.7 1.7 0.00 0.00 0.00 67 1013.5
20260508202906 52 253 2.6 3.5 0.00 0.00 0.00 66 1013.5
20260508202403 53 234 3.5 5.2 0.00 0.00 0.00 64 1013.7
20260508201900 53 234 2.6 5.2 0.00 0.00 0.00 64 1013.5
20260508201357 53 342 2.6 2.6 0.00 0.00 0.00 65 1013.4
20260508200853 53 247 1.7 1.7 0.00 0.00 0.00 65 1013.7
20260508200350 53 15 0.0 0.9 0.00 0.00 0.00 64 1013.7
20260508195846 53 229 5.2 7.8 0.00 0.00 0.00 62 1013.8
20260508195343 53 274 2.6 2.6 0.00 0.00 0.00 62 1013.7
20260508194839 54 234 4.3 7.0 0.00 0.00 0.00 62 1013.5
20260508194336 54 181 5.2 5.2 0.00 0.00 0.00 62 1013.8
20260508193833 54 230 3.5 5.2 0.00 0.00 0.00 60 1013.8
20260508193330 54 224 5.2 6.1 0.00 0.00 0.00 59 1013.8
20260508192827 54 243 2.6 2.6 0.00 0.00 0.00 60 1013.7
20260508192323 55 291 6.1 7.8 0.00 0.00 0.00 57 1013.5
20260508191820 55 336 4.3 7.0 0.00 0.00 0.00 58 1013.7
20260508191318 54 282 2.6 2.6 0.00 0.00 0.00 58 1013.5
20260508190815 55 243 7.0 7.8 0.00 0.00 0.00 56 1013.5
20260508190311 55 219 3.5 6.1 0.00 0.00 0.00 57 1013.5
20260508185807 55 250 2.6 2.6 0.00 0.00 0.00 57 1013.5
20260508185306 55 280 1.7 2.6 0.00 0.00 0.00 56 1013.8
20260508184802 55 269 5.2 7.0 0.00 0.00 0.00 55 1013.8
20260508184259 56 184 3.5 5.2 0.00 0.00 0.00 54 1013.7
20260508183756 56 353 2.6 3.5 0.00 0.00 0.00 54 1013.5
20260508183252 57 212 8.7 9.6 0.00 0.00 0.00 53 1013.5
20260508182749 56 215 2.6 3.5 0.00 0.00 0.00 55 1013.5
20260508182245 55 241 2.6 2.6 0.00 0.00 0.00 55 1013.8
20260508181741 56 243 5.2 6.1 0.00 0.00 0.00 55 1013.7
20260508181238 57 284 2.6 2.6 0.00 0.00 0.00 52 1013.5
20260508180735 57 288 3.5 5.2 0.00 0.00 0.00 52 1013.5
20260508180232 56 256 2.6 3.5 0.00 0.00 0.00 51 1013.7
20260508175728 56 180 1.7 1.7 0.00 0.00 0.00 51 1013.8
20260508175225 55 236 4.3 7.0 0.00 0.00 0.00 51 1013.9
20260508174723 56 220 4.3 6.1 0.00 0.00 0.00 52 1013.9
20260508174220 57 17 2.6 2.6 0.00 0.00 0.00 50 1013.9
20260508173716 56 190 3.5 5.2 0.00 0.00 0.00 49 1013.9
20260508173212 56 190 1.7 2.6 0.00 0.00 0.00 49 1013.7
20260508172709 56 259 6.1 7.0 0.00 0.00 0.00 49 1013.7
20260508172206 56 233 2.6 3.5 0.00 0.00 0.00 49 1014.0
20260508171703 56 232 7.8 8.7 0.00 0.00 0.00 47 1014.0
20260508171159 56 262 1.7 2.6 0.00 0.00 0.00 50 1014.1
20260508170656 56 276 7.0 7.8 0.00 0.00 0.00 47 1014.0
20260508170154 57 291 4.3 6.1 0.00 0.00 0.00 45 1014.0
20260508165651 57 194 7.0 8.7 0.00 0.00 0.00 47 1014.3
20260508165148 58 278 2.6 3.5 0.00 0.00 0.00 46 1014.1
20260508164644 58 251 2.6 3.5 0.00 0.00 0.00 46 1014.1
20260508164141 57 260 6.1 8.7 0.00 0.00 0.00 49 1014.2
20260508163639 58 232 9.6 13.0 0.00 0.00 0.00 46 1014.3
20260508163136 57 259 6.1 7.8 0.00 0.00 0.00 49 1014.3
20260508162631 57 154 6.1 8.7 0.00 0.00 0.00 48 1014.3